Time,TemperatureF,DewpointF,PressureIn,WindDirection,WindDirectionDegrees,WindSpeedMPH,WindSpeedGustMPH,Humidity,HourlyPrecipIn,Conditions,Clouds,dailyrainin,SoftwareType,DateUTC
2013-05-12 00:03:00,46.5,46.0,29.71,SE,136,0.0,2.0,96,0.00,,,0.11,weatherlink.com 1.10,2013-05-12 04:03:00,
2013-05-12 00:18:00,47.3,46.0,29.71,South,169,0.0,3.0,95,0.00,,,0.00,weatherlink.com 1.10,2013-05-12 04:18:00,
2013-05-12 00:33:00,48.4,46.0,29.71,SW,234,0.0,4.0,92,0.00,,,0.00,weatherlink.com 1.10,2013-05-12 04:33:00,
2013-05-12 00:48:00,49.0,47.0,29.71,ENE,71,0.0,4.0,92,0.00,,,0.00,weatherlink.com 1.10,2013-05-12 04:48:00,
2013-05-12 01:03:00,49.1,47.0,29.70,SSE,159,0.0,3.0,92,0.00,,,0.00,weatherlink.com 1.10,2013-05-12 05:03:00,
2013-05-12 01:18:00,49.3,47.0,29.70,ESE,104,0.0,4.0,92,0.00,,,0.00,weatherlink.com 1.10,2013-05-12 05:18:00,
2013-05-12 01:33:00,49.6,47.0,29.70,WNW,288,0.0,4.0,92,0.00,,,0.00,weatherlink.com 1.10,2013-05-12 05:33:00,
2013-05-12 01:48:00,50.2,47.0,29.72,NNW,344,2.0,11.0,90,0.00,,,0.00,weatherlink.com 1.10,2013-05-12 05:48:00,
2013-05-12 02:03:00,48.1,46.0,29.74,NW,319,4.0,10.0,91,0.01,,,0.01,weatherlink.com 1.10,2013-05-12 06:03:00,
2013-05-12 02:18:00,46.8,45.0,29.74,West,276,0.0,6.0,92,0.01,,,0.01,weatherlink.com 1.10,2013-05-12 06:18:00,
2013-05-12 02:33:00,45.9,44.0,29.75,ENE,57,1.0,10.0,92,0.01,,,0.01,weatherlink.com 1.10,2013-05-12 06:33:00,
2013-05-12 02:49:00,44.1,42.0,29.77,WNW,300,6.0,14.0,91,0.01,,,0.01,weatherlink.com 1.10,2013-05-12 06:49:00,
2013-05-12 03:04:00,43.1,41.0,29.78,NW,306,0.0,12.0,91,0.00,,,0.01,weatherlink.com 1.10,2013-05-12 07:04:00,
2013-05-12 03:19:00,42.5,40.0,29.78,WSW,254,0.0,5.0,90,0.00,,,0.01,weatherlink.com 1.10,2013-05-12 07:19:00,
2013-05-12 03:34:00,42.3,40.0,29.77,NW,313,1.0,4.0,90,0.00,,,0.01,weatherlink.com 1.10,2013-05-12 07:34:00,
2013-05-12 03:49:00,42.3,39.0,29.78,ESE,123,2.0,6.0,89,0.00,,,0.01,weatherlink.com 1.10,2013-05-12 07:49:00,
2013-05-12 04:04:00,42.0,39.0,29.78,NNE,30,1.0,7.0,88,0.00,,,0.01,weatherlink.com 1.10,2013-05-12 08:04:00,
2013-05-12 04:19:00,41.5,38.0,29.79,NNW,347,3.0,9.0,87,0.00,,,0.01,weatherlink.com 1.10,2013-05-12 08:19:00,
2013-05-12 04:34:00,40.9,37.0,29.80,NW,311,3.0,8.0,85,0.00,,,0.01,weatherlink.com 1.10,2013-05-12 08:34:00,
2013-05-12 04:49:00,40.6,37.0,29.80,SW,232,2.0,8.0,86,0.00,,,0.01,weatherlink.com 1.10,2013-05-12 08:49:00,
2013-05-12 05:04:00,39.8,35.0,29.80,NNW,344,0.0,11.0,84,0.00,,,0.01,weatherlink.com 1.10,2013-05-12 09:04:00,
2013-05-12 05:19:00,39.4,35.0,29.80,WNW,289,1.0,9.0,84,0.00,,,0.01,weatherlink.com 1.10,2013-05-12 09:19:00,
2013-05-12 05:34:00,39.1,35.0,29.81,WNW,298,0.0,8.0,84,0.00,,,0.01,weatherlink.com 1.10,2013-05-12 09:34:00,
2013-05-12 05:49:00,38.7,35.0,29.81,SW,219,1.0,5.0,85,0.00,,,0.01,weatherlink.com 1.10,2013-05-12 09:49:00,
2013-05-12 06:04:00,38.8,35.0,29.81,SSW,202,0.0,6.0,85,0.00,,,0.01,weatherlink.com 1.10,2013-05-12 10:04:00,
2013-05-12 06:19:00,39.2,35.0,29.80,SSW,207,1.0,4.0,85,0.00,,,0.01,weatherlink.com 1.10,2013-05-12 10:19:00,
2013-05-12 06:34:00,39.8,35.0,29.80,NNW,340,0.0,9.0,82,0.00,,,0.01,weatherlink.com 1.10,2013-05-12 10:34:00,
2013-05-12 06:49:00,40.2,35.0,29.80,East,97,0.0,4.0,83,0.00,,,0.01,weatherlink.com 1.10,2013-05-12 10:49:00,
2013-05-12 07:04:00,40.4,36.0,29.80,SE,146,0.0,3.0,83,0.00,,,0.01,weatherlink.com 1.10,2013-05-12 11:04:00,
2013-05-12 07:19:00,40.6,36.0,29.80,West,279,1.0,9.0,84,0.00,,,0.01,weatherlink.com 1.10,2013-05-12 11:19:00,
2013-05-12 07:34:00,40.9,36.0,29.80,SSW,200,2.0,6.0,84,0.00,,,0.01,weatherlink.com 1.10,2013-05-12 11:34:00,
2013-05-12 07:49:00,41.3,37.0,29.80,NW,307,5.0,6.0,83,0.00,,,0.01,weatherlink.com 1.10,2013-05-12 11:49:00,
2013-05-12 08:04:00,41.8,37.0,29.80,SSW,205,0.0,5.0,82,0.00,,,0.01,weatherlink.com 1.10,2013-05-12 12:04:00,
2013-05-12 08:19:00,42.8,37.0,29.80,East,100,2.0,8.0,81,0.00,,,0.01,weatherlink.com 1.10,2013-05-12 12:19:00,
2013-05-12 08:34:00,43.4,37.0,29.80,ESE,109,5.0,13.0,78,0.00,,,0.01,weatherlink.com 1.10,2013-05-12 12:34:00,
2013-05-12 08:49:00,44.2,37.0,29.79,WNW,294,1.0,8.0,77,0.00,,,0.01,weatherlink.com 1.10,2013-05-12 12:49:00,
2013-05-12 09:04:00,45.1,37.0,29.79,NW,315,3.0,13.0,74,0.00,,,0.01,weatherlink.com 1.10,2013-05-12 13:04:00,
2013-05-12 09:19:00,44.8,36.0,29.79,WNW,283,3.0,12.0,71,0.00,,,0.01,weatherlink.com 1.10,2013-05-12 13:19:00,
2013-05-12 09:34:00,45.2,35.0,29.78,West,265,3.0,10.0,67,0.00,,,0.01,weatherlink.com 1.10,2013-05-12 13:34:00,
2013-05-12 09:49:00,44.9,35.0,29.78,WNW,283,3.0,16.0,69,0.00,,,0.01,weatherlink.com 1.10,2013-05-12 13:49:00,
2013-05-12 10:04:00,45.5,36.0,29.78,West,267,3.0,17.0,69,0.00,,,0.01,weatherlink.com 1.10,2013-05-12 14:04:00,
2013-05-12 10:19:00,46.2,37.0,29.78,NW,322,5.0,20.0,69,0.00,,,0.01,weatherlink.com 1.10,2013-05-12 14:19:00,
2013-05-12 10:34:00,44.8,35.0,29.79,West,259,6.0,21.0,68,0.00,,,0.01,weatherlink.com 1.10,2013-05-12 14:34:00,
2013-05-12 10:49:00,44.6,36.0,29.79,East,90,5.0,17.0,72,0.00,,,0.01,weatherlink.com 1.10,2013-05-12 14:49:00,
2013-05-12 11:04:00,44.0,36.0,29.80,WNW,290,8.0,17.0,73,0.00,,,0.01,weatherlink.com 1.10,2013-05-12 15:04:00,
2013-05-12 11:19:00,45.0,36.0,29.80,NNW,348,8.0,21.0,71,0.00,,,0.01,weatherlink.com 1.10,2013-05-12 15:19:00,
2013-05-12 11:35:00,43.8,35.0,29.81,NW,319,10.0,13.0,72,0.00,,,0.01,weatherlink.com 1.10,2013-05-12 15:35:00,
2013-05-12 11:40:00,43.0,34.6,29.80,SSW,209,6.0,6.0,72,0.00,,,0.01,Wunderground v.1.15,2013-05-12 15:40:00,
2013-05-12 11:50:00,42.7,34.6,29.80,SW,223,5.0,5.0,73,0.00,,,0.01,Wunderground v.1.15,2013-05-12 15:50:00,
2013-05-12 12:00:00,44.0,35.9,29.81,NW,323,3.0,7.0,73,0.00,,,0.01,Wunderground v.1.15,2013-05-12 16:00:00,
2013-05-12 12:05:00,43.6,35.0,29.81,WNW,283,4.0,21.0,72,0.00,,,0.01,weatherlink.com 1.10,2013-05-12 16:05:00,
2013-05-12 12:10:00,44.0,35.6,29.80,WNW,292,5.0,5.0,72,0.00,,,0.01,Wunderground v.1.15,2013-05-12 16:10:00,
2013-05-12 12:20:00,44.9,36.0,29.80,WNW,295,4.0,18.0,72,0.00,,,0.01,weatherlink.com 1.10,2013-05-12 16:20:00,
2013-05-12 12:35:00,45.8,35.0,29.80,West,262,1.0,20.0,66,0.00,,,0.01,weatherlink.com 1.10,2013-05-12 16:35:00,
2013-05-12 12:50:00,45.4,35.0,29.81,WNW,289,12.0,32.0,67,0.00,,,0.01,weatherlink.com 1.10,2013-05-12 16:50:00,
2013-05-12 13:05:00,44.3,35.0,29.81,ESE,122,2.0,18.0,70,0.00,,,0.01,weatherlink.com 1.10,2013-05-12 17:05:00,
2013-05-12 13:20:00,44.9,35.0,29.82,West,259,0.0,17.0,68,0.00,,,0.01,weatherlink.com 1.10,2013-05-12 17:20:00,
2013-05-12 13:35:00,44.7,35.0,29.82,WNW,303,8.0,14.0,69,0.00,,,0.01,weatherlink.com 1.10,2013-05-12 17:35:00,
2013-05-12 13:50:00,44.8,35.0,29.82,NNW,329,4.0,18.0,69,0.00,,,0.01,weatherlink.com 1.10,2013-05-12 17:50:00,
2013-05-12 14:05:00,45.0,35.0,29.83,WSW,251,2.0,19.0,69,0.00,,,0.01,weatherlink.com 1.10,2013-05-12 18:05:00,
2013-05-12 14:20:00,44.8,35.0,29.83,NW,304,5.0,18.0,68,0.00,,,0.01,weatherlink.com 1.10,2013-05-12 18:20:00,
2013-05-12 14:35:00,45.3,35.0,29.83,North,355,8.0,18.0,67,0.00,,,0.01,weatherlink.com 1.10,2013-05-12 18:35:00,
2013-05-12 14:50:00,45.1,35.0,29.83,SSW,208,3.0,14.0,67,0.00,,,0.01,weatherlink.com 1.10,2013-05-12 18:50:00,
2013-05-12 15:05:00,45.2,34.0,29.83,NW,308,6.0,22.0,66,0.00,,,0.01,weatherlink.com 1.10,2013-05-12 19:05:00,
2013-05-12 15:20:00,45.4,35.1,29.83,NE,40,6.0,6.0,67,0.00,,,0.01,Wunderground v.1.15,2013-05-12 19:20:00,
2013-05-12 15:30:00,45.5,35.5,29.83,NW,323,6.0,18.0,68,0.00,,,0.01,Wunderground v.1.15,2013-05-12 19:30:00,
2013-05-12 15:35:00,45.6,35.0,29.83,NW,319,13.0,18.0,67,0.00,,,0.01,weatherlink.com 1.10,2013-05-12 19:35:00,
2013-05-12 15:50:00,47.1,36.0,29.83,North,360,5.0,15.0,66,0.00,,,0.01,weatherlink.com 1.10,2013-05-12 19:50:00,
2013-05-12 16:05:00,46.7,35.0,29.83,NNE,13,5.0,18.0,65,0.00,,,0.01,weatherlink.com 1.10,2013-05-12 20:05:00,
2013-05-12 16:20:00,47.1,36.0,29.83,NNW,342,3.0,24.0,65,0.00,,,0.01,weatherlink.com 1.10,2013-05-12 20:20:00,
2013-05-12 16:30:00,45.7,36.1,29.85,North,355,6.0,6.0,69,0.00,,,0.01,Wunderground v.1.15,2013-05-12 20:30:00,
2013-05-12 16:35:00,43.8,36.0,29.85,NW,317,2.0,19.0,75,0.00,,,0.01,weatherlink.com 1.10,2013-05-12 20:35:00,
2013-05-12 16:40:00,42.6,36.5,29.85,WNW,293,6.0,6.0,79,0.00,,,0.01,Wunderground v.1.15,2013-05-12 20:40:00,
2013-05-12 16:50:00,41.1,37.2,29.86,WNW,284,5.0,5.0,86,0.00,,,0.01,Wunderground v.1.15,2013-05-12 20:50:00,
2013-05-12 17:00:00,40.7,37.4,29.86,NW,306,5.0,18.0,88,0.00,,,0.02,Wunderground v.1.15,2013-05-12 21:00:00,
2013-05-12 17:05:00,40.7,38.0,29.86,East,82,7.0,12.0,88,0.01,,,0.02,weatherlink.com 1.10,2013-05-12 21:05:00,
2013-05-12 17:20:00,41.8,38.5,29.86,NW,304,3.0,18.0,88,0.00,,,0.02,Wunderground v.1.15,2013-05-12 21:20:00,
2013-05-12 17:35:00,42.7,38.0,29.86,SSW,195,7.0,23.0,82,0.01,,,0.02,weatherlink.com 1.10,2013-05-12 21:35:00,
2013-05-12 17:50:00,40.2,36.6,29.88,NW,324,6.0,6.0,87,0.00,,,0.03,Wunderground v.1.15,2013-05-12 21:50:00,
2013-05-12 18:06:00,39.6,37.0,29.87,North,349,1.0,15.0,90,0.01,,,0.03,weatherlink.com 1.10,2013-05-12 22:06:00,
2013-05-12 18:20:00,40.9,37.0,29.88,West,277,5.0,16.0,87,0.01,,,0.03,weatherlink.com 1.10,2013-05-12 22:20:00,
2013-05-12 18:30:00,40.4,36.2,29.88,NNW,334,5.0,18.0,85,0.00,,,0.03,Wunderground v.1.15,2013-05-12 22:30:00,
2013-05-12 18:36:00,40.0,37.0,29.88,South,177,3.0,14.0,87,0.01,,,0.03,weatherlink.com 1.10,2013-05-12 22:36:00,
2013-05-12 18:50:00,40.4,36.8,29.88,NNW,333,3.0,18.0,87,0.00,,,0.03,Wunderground v.1.15,2013-05-12 22:50:00,
2013-05-12 19:00:00,41.0,36.5,29.88,WNW,297,3.0,3.0,84,0.00,,,0.03,Wunderground v.1.15,2013-05-12 23:00:00,
2013-05-12 19:06:00,41.3,37.0,29.88,West,281,1.0,10.0,84,0.00,,,0.03,weatherlink.com 1.10,2013-05-12 23:06:00,
2013-05-12 19:21:00,41.3,37.0,29.88,NNW,346,2.0,7.0,84,0.00,,,0.03,weatherlink.com 1.10,2013-05-12 23:21:00,
2013-05-12 19:30:00,41.0,36.8,29.88,NNW,334,2.0,18.0,85,0.00,,,0.03,Wunderground v.1.15,2013-05-12 23:30:00,
2013-05-12 19:36:00,41.0,37.0,29.88,NNE,25,1.0,9.0,86,0.00,,,0.03,weatherlink.com 1.10,2013-05-12 23:36:00,
2013-05-12 19:50:00,41.4,36.9,29.90,NW,304,3.0,18.0,84,0.00,,,0.03,Wunderground v.1.15,2013-05-12 23:50:00,
2013-05-12 20:00:00,40.8,36.9,29.89,WNW,292,4.0,4.0,86,0.00,,,0.03,Wunderground v.1.15,2013-05-13 00:00:00,
2013-05-12 20:05:00,40.6,37.0,29.89,WNW,301,0.0,10.0,87,0.00,,,0.03,weatherlink.com 1.10,2013-05-13 00:05:00,
2013-05-12 20:20:00,40.1,37.0,29.90,WNW,292,3.0,16.0,88,0.01,,,0.04,weatherlink.com 1.10,2013-05-13 00:20:00,
2013-05-12 20:35:00,40.0,37.0,29.89,NW,322,0.0,9.0,90,0.01,,,0.04,weatherlink.com 1.10,2013-05-13 00:35:00,
2013-05-12 20:50:00,40.4,37.0,29.90,NW,304,3.0,10.0,86,0.01,,,0.04,weatherlink.com 1.10,2013-05-13 00:50:00,
2013-05-12 21:05:00,40.7,36.0,29.91,NW,304,6.0,14.0,82,0.01,,,0.04,weatherlink.com 1.10,2013-05-13 01:05:00,
2013-05-12 21:20:00,40.8,34.0,29.92,NW,326,10.0,13.0,78,0.00,,,0.04,weatherlink.com 1.10,2013-05-13 01:20:00,
2013-05-12 21:35:00,40.6,33.0,29.93,NNW,329,2.0,10.0,73,0.00,,,0.04,weatherlink.com 1.10,2013-05-13 01:35:00,
2013-05-12 21:50:00,40.1,32.0,29.94,North,349,5.0,16.0,73,0.00,,,0.04,weatherlink.com 1.10,2013-05-13 01:50:00,
2013-05-12 22:05:00,39.8,32.0,29.94,NW,304,6.0,18.0,73,0.00,,,0.04,weatherlink.com 1.10,2013-05-13 02:05:00,
2013-05-12 22:20:00,39.6,31.0,29.95,North,350,3.0,11.0,71,0.00,,,0.04,weatherlink.com 1.10,2013-05-13 02:20:00,
2013-05-12 22:35:00,39.3,31.0,29.95,NW,309,3.0,11.0,72,0.00,,,0.04,weatherlink.com 1.10,2013-05-13 02:35:00,
2013-05-12 22:50:00,39.2,31.0,29.95,NW,313,2.0,13.0,73,0.00,,,0.04,weatherlink.com 1.10,2013-05-13 02:50:00,
2013-05-12 23:05:00,39.1,31.0,29.96,NW,305,9.0,13.0,72,0.00,,,0.04,weatherlink.com 1.10,2013-05-13 03:05:00,
2013-05-12 23:20:00,39.1,31.0,29.96,NW,323,7.0,12.0,72,0.00,,,0.04,weatherlink.com 1.10,2013-05-13 03:20:00,
2013-05-12 23:35:00,39.3,31.0,29.96,WNW,298,6.0,18.0,71,0.00,,,0.04,weatherlink.com 1.10,2013-05-13 03:35:00,
2013-05-12 23:50:00,39.4,31.0,29.96,WNW,290,2.0,10.0,71,0.00,,,0.04,weatherlink.com 1.10,2013-05-13 03:50:00,